Regional Weather Roundup
Issued by NWS Boston, MA

Home | Current Version | Previous Version | Text Only | Print | Product List | Glossary On
Versions: 1 2 3 4 5 6 7 8 9 10 11 12 13 14 15 16 17 18 19 20 21 22 23 24 25 26 27 28 29 30 31 32 33 34 35 36 37 38 39 40 41 42 43 44 45 46 47 48 49 50
000
ASUS41 KBOX 222110
RWRBOX

REGIONAL WEATHER ROUNDUP
NATIONAL WEATHER SERVICE TAUNTON MA
500 PM EDT TUE JUL 22 2014

NOTE:  "FAIR" INDICATES FEW OR NO CLOUDS BELOW 12,000 FEET WITH NO
SIGNIFICANT WEATHER AND/OR OBSTRUCTIONS TO VISIBILITY.  THE FOLLOWING
OBSERVATION LOCATIONS DO NOT REPORT PRESENT WEATHER...PROVINCETOWN...
SMITHFIELD...BLOCK ISLAND...KEENE...AND OXFORD.

MAZALL-222200-
EASTERN MASSACHUSETTS

CITY           SKY/WX    TMP DP  RH WIND       PRES   REMARKS
BOSTON         CLOUDY    81  68  64 E9        30.02F
BEVERLY        MOSUNNY   82  68  62 SE9       30.02F
LAWRENCE       SUNNY     85  68  56 VRB7      30.03F
BEDFORD        PTSUNNY   88  65  46 S9        30.00F HX  90
BLUE HILL        N/A     86  68  54 S10       30.05F
NORWOOD        MOSUNNY   89  65  44 VRB6      30.02F HX  91
MARSHFIELD     SUNNY     84  70  61 SE8G16    30.05F
PLYMOUTH       SUNNY     81  67  62 VRB6      30.06F
TAUNTON        SUNNY     84  68  58 S10       30.05S
NEW BEDFORD    SUNNY     81  66  60 SW13      30.05F
$$

MAZALL-222200-
CAPE COD AND THE ISLANDS

CITY           SKY/WX    TMP DP  RH WIND       PRES   REMARKS
FALMOUTH       SUNNY     79  66  65 SW15      30.08S
HYANNIS        SUNNY     78  68  71 SW12      30.06F
CHATHAM        SUNNY     76  68  76 SW7       30.09F
PROVINCETOWN   SUNNY     79  68  69 S14       30.06F
NANTUCKET      SUNNY     71  65  81 S10       30.10F
MARTHAS VNYRD  SUNNY     75  67  76 SW9       30.09F
$$

MAZALL-222200-
CENTRAL AND WESTERN MASSACHUSETTS

CITY           SKY/WX    TMP DP  RH WIND       PRES   REMARKS
WORCESTER      MOSUNNY   82  63  52 SW8       30.08F
FITCHBURG      SUNNY     89  63  41 W6        30.04F HX  90
ORANGE           N/A    N/A N/A N/A MISG      30.04F
SPRINGFIELD    MOSUNNY   89  66  46 W12       30.03F HX  91
WESTFIELD      MOSUNNY   90  65  43 SW13      30.03F HX  92
NORTH ADAMS    SUNNY     85  65  51 SW8       30.04F
PITTSFIELD     MOSUNNY   82  67  60 SW8       30.07F
$$

RIZALL-222200-
RHODE ISLAND

CITY           SKY/WX    TMP DP  RH WIND       PRES   REMARKS
PROVIDENCE     MOSUNNY   85  65  51 S15       30.06S
NEWPORT        SUNNY     78  67  68 VRB7G18   30.08S
BLOCK ISLAND   SUNNY     75  64  69 SW17      30.10S
SMITHFIELD     MOSUNNY   84  64  51 SW3       30.08S
WESTERLY       SUNNY     80  66  62 SW13      30.09F
$$

CTZALL-222200-
CONNECTICUT

CITY           SKY/WX    TMP DP  RH WIND       PRES   REMARKS
BRADLEY INTL   MOSUNNY   89  65  44 SW12      30.03F HX  91
HARTFORD       SUNNY     88  65  46 SW6       30.03F HX  90
BRIDGEPORT     SUNNY     85  70  60 S14       30.06F
DANBURY        MOSUNNY   84  66  54 SW8       30.08F
GROTON         SUNNY     76  68  76 S8        30.07F
NEW HAVEN      MOSUNNY   84  69  60 S10       30.06F
CHESTER        FAIR      82  66  57 S10       30.09S
MERIDEN        MOSUNNY   87  67  51 S12       30.05F HX  90
WILLIMANTIC    MOSUNNY   86  67  52 SW10      30.06S
OXFORD         MOSUNNY   82  68  61 SW7       30.11F
$$

MEZ002-015-021-024-NHZ003-005-008-011-012-014-VTZ005-008-222200-
NORTHERN NEW ENGLAND

CITY           SKY/WX    TMP DP  RH WIND       PRES   REMARKS
PORTLAND ME    MOSUNNY   77  63  61 S14G21    30.01F
BANGOR ME      MOSUNNY   81  66  60 S13       29.99F
CONCORD NH     CLOUDY    84  63  49 S5        30.01F
MANCHESTER NH  MOSUNNY   88  63  43 S7        30.00F
NASHUA NH      SUNNY     90  63  40 VRB6      30.02F HX  91
PORTSMOUTH NH  MOSUNNY   80  67  66 SE10      30.01F
JAFFREY NH     PTSUNNY   84  64  50 S9        30.07F
KEENE NH       MOSUNNY   88  63  42 SW10      30.04S
BURLINGTON VT  PTSUNNY   88  63  43 S3        29.97F
MT. WASHINGTON PTSUNNY   59  55  88 W16         N/A
$$

NYZ052-076-222200-
EASTERN NEW YORK

CITY           SKY/WX    TMP DP  RH WIND       PRES   REMARKS
ALBANY         PTSUNNY   85  67  54 S7        30.02F
NEW YORK CITY  MOSUNNY   84  66  54 S16       30.06F
$$

ANZALL-222200-
MARINE OBSERVATIONS

STATION/POSITION TIME  TEMP    WIND        PRES    VSBY  WAVE
                       AIR SEA DIR/SP/G                  HT/PER
                 (UTC) (F)     (DEG/KT/KT) (MB)    (MI)  (FT/S)
BOSTON BUOY      NOT AVBL
BUZZARDS BAY     NOT AVBL
NANTUCKET SOUND  NOT AVBL
MASS BAY-STELLWA NOT AVBL
ISLE OF SHOALS   NOT AVBL
S OF BLOCK IS    NOT AVBL
$$

......................KEY.........................
  SKY/WX - SKY CONDITION/PRESENT WEATHER
  TMP    - TEMPERATURE IN FAHRENHEIT
  DWPT   - DEWPOINT IN FAHRENHEIT
  RH     - RELATIVE HUMIDITY IN PERCENT
  WIND   - DIRECTION AND SPEED IN MPH
  PRES   - MEAN SEA LEVEL PRESSURE IN INCHES OF HG
  WCI    - WIND CHILL INDEX
  VSB    - VISIBILITY IN MILES
  HX     - HEAT INDEX
  TC     - TEMPERATURE IN CELSIUS
  VRB    - VARIABLE WIND DIRECTION
  N/A    - NOT AVAILABLE


USA.gov is the U.S. government's official web portal to all federal, state and local government web resources and services.